Temp
74 73 74 73 72 72 71 72 73 74 73 73 73 73 73 74 75 75 74 76 75 75 75 74 75 74 75 74 74 74 74 72 71 74 73 75 74 73 71 70 71 69 69
75 74 73 73 73 73 72 73 74 73 74 74 73 72 73 75 75 75 75 77 75 75 75 75 75 77 75 75 74 73 73 74 72 71 73 74 73 73 72 70 70 70 67
75 74 73 72 73 73 73 73 73 73 73 74 73 72 73 75 75 75 75 75 75 75 75 75 75 75 74 74 74 73 73 75 73 72 73 73 73 71 69 70 69 68 72
74 74 73 73 73 74 74 73 74 73 73 73 73 73 73 74 75 75 75 75 75 76 75 76 76 75 74 74 74 74 73 73 73 71 71 71 72 72 70 68 66 66 67
71 72 73 74 74 74 73 73 74 74 74 74 74 74 73 74 74 74 75 75 74 75 75 76 76 75 71 70 73 74 72 72 71 71 70 70 71 70 69 71 68 68 67
70 71 71 72 72 72 72 72 72 73 73 73 73 74 73 73 69 68 72 74 74 74 74 75 74 72 70 66 66 67 69 71 71 70 70 70 69 70 70 70 68 66 65
68 69 69 70 70 70 71 71 71 72 72 72 73 73 73 71 64 65 68 72 73 72 72 71 73 69 68 69 68 66 66 64 66 69 69 65 67 62 64 67 67 68 68
67 68 69 69 69 70 70 70 71 71 72 72 71 71 68 64 62 62 65 71 69 66 65 66 66 66 63 64 68 67 63 62 63 67 62 59 59 61 63 66 66 63 62
66 67 68 68 68 68 69 70 70 70 69 68 67 67 65 63 61 61 65 69 64 62 62 62 63 62 59 60 68 64 61 60 60 61 60 59 59 59 61 65 62 63 61
67 67 68 68 68 69 69 68 67 66 64 63 62 63 62 63 58 59 63 65 61 62 62 62 59 59 56 59 65 62 59 59 61 61 60 60 59 58 59 58 58 59 59
69 68 68 69 69 68 66 66 65 64 63 62 60 59 59 59 58 56 59 65 62 61 60 59 58 55 54 54 58 65 62 60 61 60 59 58 58 58 57 57 59 57 58
67 66 67 67 66 65 64 63 62 61 59 58 58 57 57 57 55 55 56 58 61 59 57 58 57 53 52 53 57 55 56 60 61 60 59 58 58 57 58 59 59 59 59
64 63 63 63 63 64 63 61 60 60 59 58 57 56 56 56 56 55 55 56 57 59 59 56 54 52 53 56 55 56 58 62 61 59 57 57 58 60 61 62 62 62 62
61 60 60 61 60 60 61 61 61 59 58 58 57 56 55 55 56 57 59 59 58 60 60 60 58 57 56 58 59 58 60 61 61 61 60 59 59 60 60 60 61 61 62
59 60 58 57 55 53 49 52 57 53 57 59 59 58 56 54 52 49 52 56 57 55 57 58 59 59 58 57 56 55 55 56 56 55 57 57 58 59 58 58 58 59 58
59 59 58 56 56 55 55 53 48 47 47 48 48 54 50 48 45 43 44 44 46 48 55 54 53 53 53 53 53 52 53 55 54 55 57 57 57 57 57 58 58 57 57
58 58 57 57 57 56 56 57 53 50 46 44 44 45 46 45 43 43 44 44 47 51 55 54 54 54 54 54 55 56 56 55 54 57 57 57 57 57 57 56 57 57 57
60 55 57 57 57 56 57 56 57 55 55 53 46 46 43 43 43 44 45 50 58 56 57 56 55 55 56 56 56 57 56 57 57 58 58 58 58 57 57 56 56 56 56
60 60 60 59 58 56 56 56 56 56 56 53 52 49 46 43 43 44 47 58 58 57 57 58 58 57 57 57 57 56 57 58 58 59 59 59 58 59 57 57 57 50 52
57 57 58 58 57 57 57 57 55 55 54 54 55 55 53 53 57 57 56 57 59 59 58 58 58 58 58 58 57 58 58 58 58 59 59 59 58 58 59 58 57 57 56
58 58 58 58 58 58 57 57 56 55 55 55 56 54 48 58 58 59 58 58 59 60 59 59 58 59 59 59 59 58 59 59 59 59 59 59 58 58 57 57 57 57 57
58 59 58 59 58 58 58 58 57 56 56 56 56 55 46 57 58 58 58 59 60 59 60 60 61 61 61 61 61 61 61 61 61 60 59 59 59 58 58 58 58 57 57
59 59 59 58 58 55 57 58 58 58 58 58 59 59 56 57 59 59 60 61 61 60 60 60 61 61 61 61 61 62 63 63 63 62 61 60 58 56 58 59 58 58 57
60 61 61 59 58 59 58 57 58 54 59 59 59 59 58 59 59 60 61 61 61 61 61 60 61 62 62 62 62 62 61 62 62 62 60 56 57 53 59 57 55 57 57
62 62 61 60 60 59 59 61 59 60 60 59 59 59 59 59 59 60 60 59 59 57 59 60 59 62 61 60 60 59 48 37 47 48 60 60 57 54 57 54 56 58 57
62 62 62 61 61 60 59 59 60 60 61 61 61 60 60 61 59 60 58 57 57 59 60 58 60 60 59 59 56 43 34 34 45 36 58 60 58 55 57 56 57 58 56
MSLP
1014.22 1014.80 1015.17 1015.56 1016.07 1016.45 1016.73 1016.80 1017.02 1017.22 1017.32 1017.46 1017.64 1017.88 1018.12 1018.22 1018.28 1018.44 1018.70 1018.66 1018.78 1018.93 1018.95 1018.95 1018.88 1018.92 1018.76 1018.70 1018.74 1018.79 1018.73 1018.91 1018.83 1018.27 1018.12 1017.77 1017.80 1017.94 1018.23 1018.46 1018.58 1018.70 1018.83
1013.52 1014.26 1014.86 1015.10 1015.49 1016.04 1016.48 1016.62 1016.71 1016.85 1017.00 1017.17 1017.45 1017.80 1017.97 1017.95 1018.05 1018.16 1018.18 1018.22 1018.40 1018.54 1018.54 1018.57 1018.57 1018.61 1018.64 1018.63 1018.63 1018.70 1018.68 1018.58 1018.62 1018.31 1017.97 1017.71 1017.85 1018.02 1018.04 1018.39 1018.41 1018.64 1018.79
1013.26 1013.66 1014.37 1014.81 1015.11 1015.37 1015.79 1016.21 1016.45 1016.67 1016.86 1017.10 1017.31 1017.47 1017.53 1017.65 1017.85 1017.95 1018.00 1018.12 1018.24 1018.30 1018.32 1018.34 1018.28 1018.43 1018.43 1018.47 1018.46 1018.52 1018.46 1018.37 1018.33 1018.21 1017.93 1017.80 1017.80 1018.04 1018.27 1018.36 1018.57 1018.78 1018.75
1012.76 1013.21 1013.69 1014.22 1014.45 1014.76 1015.15 1015.60 1016.07 1016.36 1016.55 1016.72 1016.85 1017.03 1017.32 1017.53 1017.63 1017.70 1017.79 1017.82 1017.92 1017.90 1017.98 1018.06 1018.14 1018.24 1018.19 1018.15 1018.19 1018.21 1018.19 1018.07 1018.05 1018.07 1018.01 1017.89 1017.70 1017.86 1018.11 1018.19 1018.42 1018.63 1018.78
1012.30 1012.84 1013.04 1013.46 1013.97 1014.43 1014.87 1015.19 1015.45 1015.89 1016.10 1016.23 1016.55 1016.80 1017.08 1017.40 1017.36 1017.59 1017.59 1017.72 1017.79 1017.75 1017.81 1017.80 1017.80 1017.84 1017.89 1017.95 1018.14 1018.01 1018.02 1017.96 1017.91 1017.80 1017.81 1017.87 1017.75 1017.76 1017.80 1017.86 1018.17 1018.37 1018.59
1012.44 1012.66 1012.86 1013.26 1013.76 1014.21 1014.55 1014.96 1015.24 1015.52 1015.87 1016.12 1016.35 1016.53 1016.74 1016.97 1017.15 1017.16 1017.25 1017.44 1017.53 1017.65 1017.65 1017.61 1017.65 1017.88 1018.08 1018.13 1018.12 1018.01 1018.08 1018.08 1018.07 1018.10 1017.95 1017.94 1017.89 1017.91 1017.73 1017.79 1017.98 1018.22 1018.37
1012.78 1012.93 1013.15 1013.22 1013.54 1014.14 1014.37 1014.92 1015.17 1015.29 1015.53 1015.72 1015.93 1016.21 1016.50 1016.86 1016.98 1017.08 1017.08 1017.25 1017.50 1017.59 1017.66 1017.72 1017.84 1018.24 1018.30 1018.32 1018.20 1018.27 1018.40 1018.37 1018.33 1018.20 1018.22 1018.58 1018.57 1018.68 1018.52 1018.08 1018.12 1018.12 1018.12
1012.87 1013.18 1013.32 1013.50 1013.53 1013.37 1013.59 1014.38 1014.89 1015.01 1015.19 1015.24 1015.65 1016.04 1016.56 1017.13 1017.21 1017.20 1017.33 1017.34 1017.60 1017.92 1018.10 1018.21 1018.30 1018.40 1018.43 1018.42 1018.45 1018.61 1018.95 1018.89 1018.72 1018.67 1018.93 1019.40 1019.33 1018.79 1018.37 1018.25 1018.27 1018.43 1018.72
1012.27 1012.35 1012.64 1012.87 1013.09 1012.67 1012.91 1014.15 1014.39 1014.82 1015.04 1015.47 1015.81 1016.17 1016.57 1017.15 1017.50 1017.26 1016.94 1017.20 1017.88 1018.34 1018.59 1018.67 1018.69 1018.62 1018.54 1018.33 1018.40 1018.87 1019.33 1019.50 1019.52 1019.45 1019.59 1019.64 1019.49 1019.02 1018.52 1018.31 1018.59 1018.56 1018.85
1011.68 1011.25 1011.64 1012.42 1012.35 1012.34 1012.90 1013.55 1014.23 1015.03 1015.29 1015.69 1016.22 1016.43 1016.98 1017.45 1017.62 1017.22 1017.21 1017.51 1018.17 1018.54 1018.79 1019.15 1019.23 1019.01 1018.89 1018.75 1018.63 1018.95 1019.30 1019.56 1019.63 1019.62 1019.57 1019.51 1019.53 1019.58 1019.37 1019.27 1019.19 1019.04 1019.12
1011.60 1011.43 1011.51 1011.60 1012.01 1012.31 1012.93 1013.58 1014.36 1015.08 1015.22 1015.84 1016.47 1016.94 1017.13 1017.51 1017.64 1017.47 1017.43 1017.69 1018.26 1018.65 1018.99 1019.46 1019.55 1019.41 1019.38 1019.22 1019.21 1019.29 1019.41 1019.71 1019.81 1019.79 1019.89 1019.93 1019.91 1019.96 1020.00 1019.94 1019.70 1019.64 1019.62
1012.29 1011.90 1011.48 1011.82 1012.15 1012.59 1013.08 1014.05 1014.80 1015.02 1015.92 1016.21 1016.46 1017.13 1017.53 1017.20 1017.58 1017.74 1017.82 1018.19 1018.64 1018.70 1019.38 1019.74 1019.82 1019.77 1019.64 1019.66 1019.68 1019.84 1020.00 1020.10 1020.19 1020.21 1020.23 1020.37 1020.44 1020.56 1020.45 1020.30 1020.14 1020.04 1020.18
1012.67 1012.55 1012.60 1012.97 1012.86 1013.09 1013.61 1014.22 1014.91 1015.75 1015.93 1016.68 1016.11 1017.00 1016.72 1017.66 1018.06 1018.08 1018.61 1018.92 1019.02 1019.28 1019.55 1019.80 1019.92 1020.02 1020.03 1020.00 1020.12 1020.19 1020.34 1020.60 1020.53 1020.55 1020.88 1020.86 1020.77 1020.66 1020.38 1020.23 1020.30 1020.22 1020.27
1013.19 1013.41 1013.41 1013.90 1014.08 1014.06 1014.39 1014.98 1015.67 1014.96 1015.69 1016.45 1016.51 1017.34 1017.63 1018.72 1018.85 1019.12 1019.45 1019.36 1019.15 1019.59 1019.76 1019.99 1020.16 1020.39 1020.54 1020.70 1020.68 1020.82 1021.06 1021.15 1021.33 1021.26 1021.34 1021.34 1021.13 1021.03 1020.95 1020.88 1020.69 1020.61 1020.41
1013.59 1013.84 1014.07 1014.50 1014.95 1015.36 1016.21 1016.40 1015.62 1016.13 1016.31 1016.88 1017.24 1017.65 1018.34 1019.36 1020.06 1020.19 1019.84 1019.57 1019.97 1020.18 1020.16 1020.21 1020.45 1020.64 1020.91 1021.20 1021.42 1021.61 1021.63 1021.75 1021.93 1021.97 1021.86 1021.87 1021.71 1021.59 1021.51 1021.39 1021.23 1021.12 1021.27
1014.10 1014.28 1014.76 1014.87 1015.38 1015.73 1016.21 1016.62 1016.99 1016.95 1016.77 1017.20 1017.76 1018.28 1019.09 1019.35 1019.98 1020.14 1020.26 1020.62 1020.51 1020.52 1020.67 1020.71 1020.90 1021.13 1021.42 1021.68 1021.71 1021.90 1022.08 1022.11 1022.32 1022.36 1022.25 1022.07 1022.12 1022.21 1022.07 1022.01 1021.88 1021.84 1021.72
1014.26 1014.69 1014.97 1015.29 1015.74 1016.03 1016.32 1016.75 1017.50 1018.33 1018.10 1018.21 1018.32 1019.23 1019.53 1019.42 1019.82 1020.27 1020.25 1020.87 1020.81 1020.46 1020.73 1021.12 1021.28 1021.45 1021.87 1021.97 1022.05 1022.26 1022.37 1022.45 1022.58 1022.46 1022.48 1022.47 1022.33 1022.31 1022.31 1022.38 1022.31 1022.28 1022.17
1014.66 1014.99 1015.26 1015.42 1015.79 1016.24 1016.65 1017.05 1017.39 1017.61 1018.18 1019.40 1019.67 1019.40 1020.13 1020.20 1020.31 1020.15 1020.15 1020.58 1020.67 1020.55 1020.73 1021.32 1021.28 1021.54 1021.98 1021.82 1022.12 1022.41 1022.49 1022.59 1022.62 1022.63 1022.59 1022.72 1022.72 1022.59 1022.55 1022.77 1022.84 1022.61 1022.47
1015.13 1015.35 1015.32 1015.72 1015.97 1016.26 1016.75 1017.16 1017.51 1017.89 1018.52 1018.98 1019.69 1020.01 1020.57 1020.33 1020.07 1020.11 1020.28 1020.40 1020.62 1020.70 1021.09 1021.23 1021.37 1021.61 1021.89 1022.11 1022.33 1022.43 1022.74 1022.68 1022.65 1022.54 1022.78 1022.92 1022.86 1022.63 1022.69 1022.89 1022.99 1022.85 1022.81
1015.43 1015.69 1015.73 1015.97 1016.30 1016.75 1017.01 1017.25 1017.62 1018.22 1018.70 1018.87 1019.25 1019.81 1019.97 1020.01 1019.97 1020.05 1020.30 1020.31 1020.76 1020.70 1020.96 1021.18 1021.30 1021.61 1021.88 1021.96 1022.16 1022.32 1022.63 1022.67 1022.71 1022.58 1022.69 1022.78 1022.81 1022.80 1022.89 1023.12 1022.83 1022.76 1022.74
1015.47 1015.75 1015.73 1016.11 1016.54 1016.85 1017.18 1017.53 1017.79 1018.03 1018.38 1018.53 1018.92 1019.49 1019.55 1019.43 1019.85 1020.12 1020.27 1020.59 1020.80 1020.71 1020.72 1020.86 1021.16 1021.34 1021.68 1021.59 1021.73 1022.00 1022.15 1022.16 1022.24 1022.36 1022.60 1022.49 1022.74 1022.80 1023.02 1023.20 1023.04 1022.82 1022.73
1015.51 1015.71 1015.91 1016.13 1016.50 1016.89 1017.27 1017.53 1017.77 1017.97 1018.20 1018.53 1018.69 1019.13 1019.43 1019.73 1019.90 1020.34 1020.48 1020.42 1020.36 1020.64 1020.75 1020.83 1020.82 1020.94 1020.92 1021.13 1021.37 1021.48 1021.72 1021.84 1021.81 1022.09 1022.06 1022.19 1022.39 1022.44 1022.66 1022.84 1022.63 1022.57 1022.67
1015.43 1015.75 1016.00 1016.06 1016.33 1016.77 1017.17 1017.41 1017.65 1017.92 1017.97 1018.30 1018.38 1018.62 1019.16 1019.31 1019.64 1019.76 1019.97 1019.91 1020.14 1020.32 1020.59 1020.55 1020.52 1020.49 1020.86 1021.13 1021.34 1021.53 1021.28 1021.11 1021.09 1021.36 1021.67 1021.99 1022.20 1022.40 1022.52 1022.40 1022.61 1022.64 1022.52
1015.28 1015.42 1015.57 1015.82 1016.27 1016.52 1016.75 1016.99 1017.19 1017.34 1017.81 1018.07 1018.15 1018.35 1018.43 1018.78 1019.10 1019.21 1019.54 1019.70 1019.79 1020.18 1020.27 1020.50 1020.60 1020.51 1020.79 1020.96 1021.06 1021.05 1020.88 1020.77 1020.83 1020.94 1021.21 1021.34 1021.59 1021.77 1022.10 1022.40 1022.39 1022.29 1022.17
1014.94 1015.13 1015.31 1015.58 1015.64 1015.98 1016.30 1016.54 1016.80 1017.03 1017.26 1017.50 1017.77 1017.95 1018.11 1018.32 1018.47 1018.67 1019.07 1019.61 1019.98 1020.16 1020.16 1020.33 1020.48 1020.65 1020.78 1020.87 1020.91 1020.90 1020.90 1020.89 1020.85 1020.68 1020.70 1020.84 1021.04 1021.35 1021.75 1022.05 1022.15 1022.04 1022.02
1014.71 1014.88 1015.00 1015.24 1015.53 1015.83 1016.11 1016.30 1016.52 1016.66 1016.68 1016.74 1017.07 1017.36 1017.59 1017.92 1018.29 1018.53 1018.82 1019.38 1019.91 1020.12 1020.30 1020.42 1020.35 1020.47 1020.65 1020.75 1020.84 1020.93 1020.87 1020.77 1020.43 1020.40 1020.32 1020.57 1021.01 1021.39 1021.70 1021.94 1022.03 1021.80 1021.70
Wind_Speed
11 10 9 8 7 5 5 5 6 4 5 5 5 5 5 5 5 4 4 3 3 3 3 3 4 4 3 3 2 3 2 3 3 2 2 1 3 3 3 2 2 3 3
12 10 10 8 8 7 7 6 5 6 4 5 5 5 5 5 4 5 4 4 4 4 4 3 4 2 3 3 2 3 3 3 3 4 2 2 3 3 3 3 2 2 2
10 11 9 9 9 10 8 7 6 6 6 6 5 6 5 5 4 4 4 5 5 5 4 4 5 3 4 2 2 3 3 3 3 3 3 1 1 2 2 2 3 2 1
9 10 11 10 11 10 9 9 8 7 6 6 6 5 5 5 5 5 6 5 5 5 5 6 5 5 5 3 3 3 3 3 3 3 3 3 2 2 2 2 3 3 3
8 9 10 9 9 8 8 8 8 7 7 6 5 6 5 6 5 6 5 5 5 6 5 5 6 6 5 2 2 3 2 2 2 3 3 2 2 2 3 1 2 1 3
3 6 6 6 6 7 6 7 7 7 7 6 7 7 6 5 6 7 5 5 5 4 4 3 3 4 3 5 4 4 2 3 4 2 2 3 2 2 1 2 2 2 2
3 2 2 4 5 5 4 3 6 8 8 9 9 8 6 3 4 0 4 3 2 0 2 3 3 4 4 4 5 5 7 9 6 3 3 4 4 5 5 2 2 2 1
5 5 4 4 4 5 4 3 6 5 8 7 5 4 6 4 3 2 2 3 4 5 5 4 4 3 6 4 3 4 7 9 7 7 9 6 4 5 2 1 2 3 3
8 7 7 7 7 5 1 1 3 4 3 3 5 5 6 4 5 2 2 5 6 6 6 6 4 4 7 5 2 6 6 6 9 13 13 10 12 15 12 2 4 2 2
8 4 5 8 8 7 9 3 3 4 6 6 7 7 6 4 6 5 2 5 5 4 4 6 10 7 8 7 5 6 5 4 3 4 4 7 8 9 13 7 3 2 1
6 6 8 8 6 7 7 5 5 6 8 7 7 6 7 4 5 8 5 4 4 4 4 3 3 8 8 10 8 3 3 6 6 4 4 3 4 5 4 4 4 3 2
3 4 5 6 5 7 10 9 9 9 7 4 9 5 4 6 10 9 11 9 7 6 5 4 4 8 10 9 6 7 8 5 3 3 4 4 4 3 3 3 4 4 3
4 5 8 7 5 6 8 8 9 7 8 8 3 5 5 5 5 12 10 10 10 7 5 7 8 9 8 9 12 10 7 4 4 4 4 3 2 3 4 3 4 4 5
6 4 6 5 5 7 6 5 4 4 6 4 6 4 6 4 4 4 5 6 11 8 8 6 8 9 10 8 8 7 5 5 4 5 5 4 3 4 6 5 4 5 4
5 5 6 6 6 7 8 5 5 5 3 5 4 5 6 4 2 3 3 5 4 4 5 3 4 5 6 5 5 6 5 5 5 4 4 4 5 5 5 4 4 4 5
4 4 3 4 4 5 5 7 17 10 11 12 10 6 3 11 9 7 8 6 7 5 3 3 4 4 4 4 4 4 4 5 4 4 5 5 5 5 5 4 4 4 5
5 5 4 4 4 4 4 6 7 8 16 13 13 9 6 11 10 8 9 8 4 5 4 4 4 4 4 3 3 3 3 3 2 3 4 3 4 4 4 4 4 4 4
5 6 4 4 4 4 3 4 5 6 7 5 8 8 7 7 7 7 7 4 4 5 3 3 4 3 3 3 3 3 3 3 3 3 3 3 3 4 4 4 3 4 4
4 3 4 4 4 5 5 4 4 6 7 7 4 4 4 6 7 7 4 2 2 2 2 2 3 3 3 3 2 2 2 2 2 2 2 1 1 2 3 3 2 3 2
3 8 6 5 6 5 4 6 6 5 5 5 4 3 4 2 2 2 2 2 2 3 3 3 3 3 3 3 4 3 2 2 2 2 2 1 1 1 0 0 1 2 2
3 4 8 5 5 5 5 5 4 5 5 4 4 3 4 2 3 2 3 2 2 2 3 3 4 5 5 4 3 3 3 3 3 3 3 3 2 1 1 2 3 2 3
3 3 4 4 4 5 4 4 5 4 5 5 4 3 7 2 3 3 4 4 4 2 2 2 2 3 3 4 4 5 5 5 5 5 4 4 4 4 3 3 3 3 3
4 4 3 2 3 5 4 4 5 5 5 5 4 4 5 5 5 5 5 4 4 4 4 4 3 2 2 3 4 6 7 7 5 3 4 3 4 3 3 2 2 3 3
5 5 5 4 4 4 5 5 5 5 4 5 5 5 5 5 5 5 4 3 3 3 4 3 3 3 2 0 0 3 5 6 5 6 6 5 6 5 4 3 3 4 3
4 4 4 4 4 4 4 5 5 6 6 6 6 5 5 4 4 4 3 2 2 3 4 4 3 3 2 2 3 5 5 7 6 7 5 7 7 7 6 3 4 2 4
4 4 3 3 3 3 5 5 6 5 6 6 6 6 5 5 4 4 5 6 5 5 5 3 4 4 3 3 5 8 6 7 6 5 5 5 5 4 3 3 4 2 4
Wind_Direction
199 203 203 196 200 200 214 212 206 198 201 202 183 186 210 223 226 224 219 227 238 261 264 248 259 254 273 282 243 228 210 190 246 291 264 249 205 182 155 107 106 77 59
200 197 209 198 189 201 208 215 210 218 198 210 196 208 225 221 212 217 229 221 222 251 261 264 279 293 272 262 255 251 245 209 217 259 255 240 225 199 199 179 173 115 111
191 190 198 202 197 205 208 210 207 210 211 208 204 216 228 223 222 231 232 229 226 231 246 249 261 258 273 266 261 263 268 265 238 248 280 286 195 170 174 178 178 168 128
187 188 193 199 202 209 205 201 208 211 213 210 209 221 235 235 234 233 230 229 245 245 243 242 246 236 244 266 271 269 271 270 250 255 265 273 250 171 192 206 222 206 201
172 190 206 206 199 197 198 210 209 208 221 219 219 224 226 229 223 226 224 229 234 247 247 248 243 235 255 221 242 274 273 273 282 273 258 238 253 228 240 184 251 219 231
158 212 199 175 175 195 193 203 204 212 217 215 223 226 220 230 247 233 226 229 233 247 276 302 315 78 27 11 28 15 348 288 285 282 276 273 273 282 261 232 203 179 254
124 193 160 134 151 185 163 207 224 216 210 218 227 221 219 135 35 51 202 201 205 346 11 10 57 61 27 345 355 76 54 34 34 311 318 26 354 21 327 318 262 228 226
197 196 194 193 152 128 118 196 239 224 220 210 201 201 137 95 68 80 250 166 102 77 64 56 77 61 31 355 343 68 53 43 35 66 78 70 49 349 252 337 331 72 63
216 209 208 202 223 196 102 298 233 209 162 107 107 111 116 101 316 303 137 119 106 90 75 52 58 58 358 357 156 106 92 83 66 74 76 74 53 40 33 75 27 330 87
234 229 198 228 229 211 216 139 108 115 121 109 95 82 67 69 356 9 14 111 108 112 88 67 45 48 11 23 102 126 116 105 89 63 49 45 49 47 48 53 23 55 84
297 228 187 177 179 141 120 108 116 153 139 119 106 96 95 50 31 27 53 110 121 108 89 80 50 46 45 39 44 83 107 132 107 93 79 60 47 44 33 34 42 45 47
350 44 52 113 121 118 115 116 113 97 70 93 121 83 67 93 50 55 65 90 113 110 103 91 79 62 58 52 57 75 90 93 85 76 71 55 54 27 13 18 26 52 37
72 48 72 49 70 102 124 130 127 161 139 138 123 107 100 62 74 57 76 91 91 98 104 111 90 68 54 62 56 60 64 75 88 81 64 53 46 21 18 41 44 70 71
90 61 85 98 91 79 85 109 128 106 95 104 118 97 84 86 81 93 107 102 91 102 107 89 91 87 71 63 62 50 61 64 56 65 63 47 18 31 34 14 22 16 55
81 86 69 70 73 81 62 8 83 64 79 131 106 122 131 129 76 22 74 93 98 98 93 75 78 82 80 71 64 55 52 53 58 51 59 57 51 45 43 18 31 37 55
115 98 88 96 97 96 100 83 46 56 77 82 84 116 69 103 118 101 92 93 124 135 66 91 90 86 87 94 89 82 65 74 67 84 81 72 59 40 33 30 44 48 52
127 125 112 102 105 110 106 113 110 63 65 70 94 96 111 139 127 127 116 95 102 98 101 102 109 111 114 99 91 85 93 86 97 85 79 71 68 57 44 39 41 39 43
117 125 132 126 123 109 102 111 125 124 117 97 45 95 90 103 109 104 117 119 96 68 101 129 127 128 136 115 116 124 120 122 94 84 81 67 59 52 57 43 31 27 23
123 127 124 117 118 122 122 112 110 111 122 125 126 89 90 91 93 72 68 85 98 102 130 145 138 139 129 125 137 144 148 133 129 116 97 88 78 60 60 47 32 31 16
132 141 118 121 120 117 122 131 125 122 136 136 139 146 145 155 104 101 91 99 129 127 149 176 174 165 170 169 180 172 163 170 190 198 178 190 143 92 189 206 48 16 7
140 141 139 130 141 147 143 148 144 144 146 145 149 163 160 110 126 132 134 155 189 167 164 161 173 189 192 196 192 189 203 219 227 228 229 214 201 208 242 283 290 287 294
144 147 149 154 153 159 166 161 159 155 160 161 150 165 177 191 169 185 196 199 200 200 181 189 184 204 208 209 215 214 216 230 228 227 235 222 213 212 212 247 258 260 274
149 152 165 165 172 162 178 190 182 183 176 174 164 171 185 203 202 204 215 210 197 195 206 203 205 196 206 232 239 241 246 246 249 240 247 231 207 208 222 229 269 286 294
162 178 172 159 165 165 173 190 202 194 191 189 189 200 193 207 216 221 232 236 230 230 200 201 230 223 187 56 277 261 255 264 262 251 227 198 210 190 201 225 221 235 265
167 174 170 177 170 187 185 187 190 201 198 197 199 204 202 200 197 211 220 195 207 178 170 153 144 145 115 16 354 339 338 318 288 278 237 217 198 182 193 203 241 240 273
184 188 178 173 189 186 203 197 205 204 203 197 194 201 198 187 191 176 149 150 145 148 148 149 136 107 57 16 358 343 332 316 307 239 212 199 184 161 170 213 257 292 296